This is the latest recevied weather packets stored in our database for station/object K1LVA. If no packets are shown the sender has not sent any weather packets the latest 10 day(s).
| Time | Temp. | Humidity | Pressure | Rain* | Wind** | Luminosity | Snow |
|---|---|---|---|---|---|---|---|
| 1777769331 | 10.56° C | 97% | 1013.9 hPa | 0 mm | - | 0 W/m² | - |
| 1777769028 | 10.56° C | 97% | 1013.8 hPa | 0 mm | - | 0 W/m² | - |
| 1777768726 | 10.56° C | 97% | 1013.6 hPa | 0 mm | - | 0 W/m² | - |
| 1777768422 | 11.11° C | 96% | 1013.7 hPa | 0 mm | - | 0 W/m² | - |
| 1777768119 | 11.11° C | 96% | 1013.5 hPa | 0 mm | - | 0 W/m² | - |
| 1777767817 | 11.11° C | 95% | 1013.5 hPa | 0 mm | - | 0 W/m² | - |
| 1777767513 | 11.11° C | 95% | 1013.4 hPa | 0 mm | - | 0 W/m² | - |
| 1777767209 | 11.11° C | 94% | 1013.1 hPa | 0 mm | - | 0 W/m² | - |
| 1777766907 | 11.11° C | 94% | 1013.5 hPa | 0 mm | - | 1 W/m² | - |
| 1777766605 | 11.67° C | 94% | 1013.4 hPa | 0 mm | - | 4 W/m² | - |
| 1777766301 | 11.67° C | 93% | 1013.3 hPa | 0 mm | - | 8 W/m² | - |
| 1777765999 | 12.22° C | 92% | 1013.3 hPa | 0 mm | - | 11 W/m² | - |
| 1777765695 | 12.22° C | 91% | 1013 hPa | 0 mm | - | 15 W/m² | - |
| 1777765392 | 12.78° C | 90% | 1013 hPa | 0 mm | - | 19 W/m² | - |
| 1777765088 | 12.78° C | 89% | 1012.9 hPa | 0 mm | - | 24 W/m² | - |
| 1777764785 | 13.33° C | 87% | 1012.6 hPa | 0 mm | - | 28 W/m² | - |
| 1777764482 | 13.33° C | 87% | 1012.8 hPa | 0 mm | - | 32 W/m² | - |
| 1777764178 | 13.33° C | 86% | 1012.4 hPa | 0 mm | - | 34 W/m² | - |
| 1777763875 | 13.89° C | 86% | 1012.4 hPa | 0 mm | - | 37 W/m² | - |
| 1777763573 | 13.89° C | 84% | 1012.4 hPa | 0 mm | - | 40 W/m² | - |
| 1777763271 | 14.44° C | 85% | 1012.2 hPa | 0 mm | - | 42 W/m² | - |
| 1777762969 | 15° C | 82% | 1012.2 hPa | 0 mm | - | 46 W/m² | - |
| 1777762664 | 15° C | 82% | 1012.4 hPa | 0 mm | - | 50 W/m² | - |
| 1777762356 | 15.56° C | 80% | 1012.3 hPa | 0 mm | - | 60 W/m² | - |
| 1777762052 | 15° C | 81% | 1012.8 hPa | 0 mm | - | 66 W/m² | - |
* Rain latest hour (hover to see other rain measurements)
** Current wind speed in m/s (hover to see current wind gust speed)